User: anonymous   Login
Location: �quirre
(50.4736°N, 2.2351°E)
Time: 10:09:28
(UTC+00:00)
Language:

USA 215 - Orbit

View from above orbital plane
View from above orbital plane
View from above satellite
View from above satellite

Ground track
Ground track

The orbit data is extracted from the following two-line orbital elements,

1 37162U 10046A   20297.78050786 0.00000000  00000-0  00000-0 0    04
2 37162 122.9983  15.7549 0002744  60.5929 299.4071 13.41427562    01
Epoch (UTC): 23 October 2020 18:43:55
Eccentricity: 0.0002744
inclination: 122.9983°
perigee height: 1102 km
apogee height: 1106 km
right ascension of ascending node: 15.7549°
argument of perigee: 60.5929°
revolutions per day: 13.41427562
mean anomaly at epoch: 299.4071°
orbit number at epoch: 0

The dashed part of the orbit path shows where the satellite is in the earth's shadow,  

DLR